BEIDOU-2 M3 (C11)

Last updated on Thu Nov 21 2024 00:03:16 GMT+0000 (Coordinated Universal Time)

1 38250U 12018A 24325.18585057 -.00000076 00000+0 00000+0 0 9997 2 38250 56.2287 324.1413 0025513 266.6332 93.0836 1.86233585 85252
UTC large
Height (km)
Speed (km/s)
/
Latitude / Longitude
Inclination (degrees)
Orbital Period (minutes)
Azimuth
Elevation
Range (km)
Doppler Factor

Next 0 passes for location: London (51.5072 / 0.1276)

Sorry there are no passes over London.